Cloud_Cover
5 33 65 99 54 88 70 5 5 99 80 73 100 75 100 100 100 100 100 100 100 91 41 99 13 66 23 49 8 5 24 4 5 5 1 5 100 90 7 84 11 43 98
29 27 8 18 58 24 5 5 91 100 99 77 100 68 96 93 82 88 100 100 100 88 88 5 55 4 4 2 96 3 16 2 10 0 92 75 62 99 72 100 55 79 98
51 73 5 5 40 20 5 3 5 23 95 93 47 94 22 56 97 84 87 100 100 96 14 5 1 4 0 0 6 5 4 0 12 5 40 54 100 23 98 100 10 97 18
90 53 11 5 7 8 5 5 5 96 100 99 55 68 33 39 67 74 51 77 100 100 100 42 0 0 2 0 0 4 4 1 5 5 6 100 100 90 5 49 46 9 24
94 78 17 10 16 8 5 18 32 100 70 96 50 72 81 49 48 46 55 47 79 100 100 100 63 0 0 0 0 0 0 1 5 5 85 62 99 100 62 67 67 73 6
93 53 32 41 36 24 5 5 72 72 99 37 14 61 56 72 86 96 82 54 95 94 98 100 100 72 0 0 1 0 0 0 0 5 14 5 4 22 54 47 79 100 27
100 100 34 49 34 6 40 5 5 91 68 6 30 98 18 34 82 96 100 91 100 100 74 71 100 100 44 0 0 0 0 0 2 2 0 0 0 80 5 5 5 96 100
72 99 99 88 9 5 5 5 5 84 15 19 76 74 100 38 70 68 97 67 99 100 100 60 63 100 100 71 0 0 0 0 0 0 0 0 0 63 71 0 3 5 5
96 100 100 100 11 5 4 5 12 8 9 47 96 52 91 94 81 67 94 22 78 87 100 100 85 81 100 100 88 1 0 0 0 0 0 0 0 1 0 0 0 0 0
100 46 58 26 10 5 2 5 11 78 65 74 96 86 53 15 15 95 87 74 100 100 100 94 30 87 100 97 100 100 79 0 0 0 3 0 0 0 2 0 0 0 0
100 100 19 42 21 7 5 7 38 35 6 96 25 92 100 27 5 5 23 100 100 100 99 99 62 89 95 99 100 98 100 100 1 0 0 0 0 0 0 0 0 0 0
80 91 92 88 63 16 19 4 28 45 19 17 38 95 100 100 67 100 100 100 95 92 75 62 9 52 100 79 93 100 100 96 100 56 0 0 0 0 0 0 0 0 0
94 44 35 24 18 65 17 20 24 11 22 12 14 14 100 100 100 100 62 15 5 9 6 45 66 53 83 100 78 100 100 100 100 92 92 0 0 0 0 0 0 0 0
93 48 50 58 24 42 9 43 34 21 33 8 12 10 19 32 15 4 1 1 5 5 5 5 88 100 78 99 98 100 100 100 100 100 100 60 0 0 0 0 0 0 0
70 56 73 70 57 37 43 51 42 45 44 43 32 17 26 44 10 2 0 0 5 10 96 100 5 5 75 5 5 21 100 100 100 100 100 100 62 0 0 0 0 0 0
100 100 98 100 72 63 52 74 55 95 73 93 46 88 100 25 5 14 10 5 6 9 16 9 5 1 0 2 4 7 62 77 99 100 100 100 100 90 2 0 0 0 0
100 100 100 100 83 99 86 78 67 91 89 67 84 94 83 99 9 5 11 36 79 94 22 75 72 15 7 28 21 3 10 63 100 100 100 100 100 100 100 62 0 0 0
100 98 100 100 95 81 100 100 100 93 62 97 85 100 76 100 95 71 48 16 30 93 72 43 80 100 100 86 5 5 5 5 5 62 89 100 87 95 100 100 99 2 0
77 60 68 91 87 78 48 95 100 95 100 100 100 100 100 100 100 99 100 100 100 100 96 81 52 74 100 62 5 5 5 5 5 2 6 84 100 100 100 100 100 100 33
2 99 99 11 11 5 5 66 56 75 59 88 89 100 100 100 100 100 100 100 98 100 100 100 67 63 100 100 60 27 21 34 17 5 3 1 5 53 33 92 100 100 100
5 2 98 59 6 3 7 5 6 11 34 18 28 27 77 99 97 72 79 76 86 94 98 100 100 100 100 100 100 98 87 40 54 38 13 0 0 2 12 76 9 98 100
42 36 41 86 98 100 100 98 100 100 100 90 6 5 70 100 100 100 100 100 100 95 53 32 26 51 59 100 100 100 39 11 8 27 14 0 2 4 0 2 23 55 18
100 100 71 81 87 97 95 100 100 47 100 100 100 84 97 100 11 12 81 57 54 94 99 68 32 8 19 6 70 86 100 54 19 20 39 5 1 0 0 0 0 4 4
39 100 98 15 50 68 97 93 97 100 100 100 98 100 66 94 57 16 9 25 28 38 24 32 58 46 41 53 51 61 77 52 36 25 58 100 2 4 1 0 0 0 0
14 24 50 52 39 6 41 6 37 100 95 99 90 23 42 79 100 74 49 14 10 11 41 5 13 31 14 2 19 3 7 54 1 0 12 69 8 17 0 0 0 0 0
56 68 98 44 5 5 88 93 100 98 48 31 18 7 5 5 5 10 5 5 5 3 7 5 28 52 22 18 8 8 5 30 33 16 26 66 19 94 32 34 34 46 24